sat.trackr.live / text

‹ back to catalog

ONEWEB-0312

NORAD 49098 · 2021-075Z

PAYLOAD ACTIVE UNKNOWN

§ Identity

Operator
Country
UK
Launch date
2021-08-21
Launch site
TYMSC
Launch vehicle
Mass (kg)
RCS (m²)

Purposes: comms

External: N2YO · Heavens-Above · Gunter

§ Orbital elements

Epoch: 2026-09-20T04:23:35.089728Z

Period
109.28 min
Inclination
87.9183°
Eccentricity
0.0001499
Mean motion
13.17659047 rev/d
Perigee alt
1,192.5 km
Apogee alt
1,194.8 km
Semi-major
7,571.8 km
B*
-6.0793e-3
RAAN
347.0075°
Arg perigee
102.7629°
Mean anomaly
257.3670°
Rev number
24,611

§ Raw data

ONEWEB-03121 49098U 21075Z   26263.18304502 -.00002347  00000+0 -60793-2 0  99912 49098  87.9183 347.0075 0001499 102.7629 257.3670 13.17659047246111

JSON: /api/v1/satellites/49098 · /tle

For live sub-satellite position, see the globe view (requires WebGL).

§ Visibility from observer

Set your observer location to see the next 7 days of passes ≥ 10°. The values pass through the URL so the page stays shareable.

No JS? Fill the form by hand. The geolocation button needs JavaScript.